Regional Weather Roundup
Issued by NWS

Home | Current Version | Previous Version | Text Only | Print | Product List | Glossary Off
Versions: 1 2 3 4 5 6 7 8 9 10 11 12 13 14 15 16 17 18 19 20 21 22 23 24 25 26 27 28 29 30 31 32 33 34 35 36 37 38 39 40 41 42 43 44 45 46 47 48 49 50

000
ASUS43 KIND 300659
RWRIN

WEATHER ROUNDUP FOR INDIANA
NATIONAL WEATHER SERVICE INDIANAPOLIS IN
300 AM EDT MON MAR 30 2015

NOTE: "FAIR" INDICATES FEW OR NO CLOUDS BELOW 12,000 FEET WITH NO
SIGNIFICANT WEATHER AND/OR OBSTRUCTIONS TO VISIBILITY.

* - STATION DOES NOT REPORT WEATHER SUCH AS PRECIPITATION OR FOG.

+ - STATION NOT QUALITY CONTROLLED BY THE NATIONAL WEATHER SERVICE.
    USE DATA WITH CAUTION...ESPECIALLY DEWPOINT AND RELATIVE
    HUMIDITY OBSERVATIONS.

INZ001>003-010>013-019-020-300800-
NORTHWEST INDIANA

CITY           SKY/WX    TMP DP  RH WIND       PRES   REMARKS
GARY /AIRPORT/ PTCLDY    37  30  75 W5        29.97R
KNOX *+          N/A     37  25  60 W6        29.95S

$$

LMZ046-743>745-300800-
SOUTHERN LAKE MICHIGAN

STATION/POSITION TIME  TEMP WIND        PRES
                       AIR  DIR/SP/G
                 (UTC) (F)  (DEG/KT/KT) (MB)
BURNS HARBOR     0600   40  260/  7/  9 1014.9R
MICHIGAN CITY    0600   39  260/ 10/ 12   N/A

$$

INZ004-005-014>016-021>024-300800-
NORTH CENTRAL INDIANA

CITY           SKY/WX    TMP DP  RH WIND       PRES   REMARKS
GOSHEN         CLEAR     40  30  67 W13       29.91R
SOUTH BEND     PTCLDY    38  29  70 W8        29.94R
WARSAW +       CLEAR     39  32  75 W13       29.93R

$$

INZ006>009-017-018-025>027-300800-
NORTHEAST INDIANA

CITY           SKY/WX    TMP DP  RH WIND       PRES   REMARKS
ANGOLA *+      CLOUDY    43  32  65 NW12      29.87R
AUBURN +       CLOUDY    41  32  70 W14       29.90R
FORT WAYNE     PTCLDY    41  32  70 W14       29.92R

$$

INZ028-029-035-036-043>045-051>053-300800-
WEST CENTRAL INDIANA

CITY           SKY/WX    TMP DP  RH WIND       PRES   REMARKS
CRAWFORDSVL +  CLEAR     37  30  75 SW7       30.01S
GREENCASTLE +  PTCLDY    43  36  75 W3        30.03S
LAFAYETTE      PTCLDY    38  32  79 W6        29.99F
TERRE HAUTE    CLEAR     43  38  82 NW5       30.04S

$$

INZ030>032-037>040-046>048-054>057-064-065-300800-
CENTRAL INDIANA

CITY           SKY/WX    TMP DP  RH WIND       PRES   REMARKS
CP ATTERBURY + PTCLDY    46  39  76 NW7       30.02R
FRANKFORT +    CLEAR     35  31  87 SW8       30.01S WCI  28
GREENWOOD *+   PTCLDY    45  34  65 W3        30.01R
INDIANAPOLIS   MOCLDY    43  35  73 W7        30.00S
-EAGLE CREEK   PTCLDY    43  35  73 W7        30.00S
KOKOMO *+        N/A     39  34  81 W10       29.97S
MT COMFORT *+  CLEAR     41  27  56 NW9       30.00S
SHELBYVILLE    CLEAR     45  35  68 NW12      30.00R

$$

INZ033-034-041-042-049-050-058-059-300800-
EAST CENTRAL INDIANA

CITY           SKY/WX    TMP DP  RH WIND       PRES   REMARKS
MUNCIE         CLEAR     41  35  79 W10       29.97R

$$

INZ060-061-067>069-081>083-085>088-300800-
SOUTHWEST INDIANA

CITY           SKY/WX    TMP DP  RH WIND       PRES   REMARKS
EVANSVILLE     CLEAR     54  43  66 VRB7      30.06F
HUNTINGBURG *+ CLEAR     50  41  71 W12       30.04F

$$

INZ062-063-066-070>080-084-089>092-300800-
SOUTH CENTRAL AND SOUTHEAST INDIANA

CITY           SKY/WX    TMP DP  RH WIND       PRES   REMARKS
BLOOMINGTON    CLEAR     46  40  79 NW7       30.02S
SEYMOUR +      MOCLDY    50  41  71 W10G18    30.01R

$$




USA.gov is the U.S. government's official web portal to all federal, state and local government web resources and services.